When you browse on this site, cookies collect data to enhance your experience and personalize the content and advertising you see.
Visit our Privacy Policy to learn more. By continuing to use the site, you agree to this use of cookies and data.
  • în România
  • Lista ţărilor
  • Pe 7 zile
  • Temperatura apei
  • Hartă satelitară
  • Meteo pe hartă
  • Widget-uri
  • user-avatar
    Intrare

    Meteo pe oră la Malakoff

    Astăzi, 20 Aprilie, Sâmbătă

    Timp Temperatura Precipitaţii Vânt Presiune Umiditate
    00:00 +17°C° 0 mm 2 m/s 763 mmHg 70%
    01:00 +16°C° 0.1 mm 2 m/s 763 mmHg 72%
    02:00 +16°C° 0.1 mm 2 m/s 763 mmHg 73%
    03:00 +14°C° 0.1 mm 3 m/s 762 mmHg 75%
    04:00 +15°C° 0.2 mm 2 m/s 763 mmHg 75%
    05:00 +15°C° 0.2 mm 2 m/s 763 mmHg 76%
    06:00 +15°C° 0 mm 1 m/s 763 mmHg 75%
    07:00 +17°C° 0 mm 2 m/s 763 mmHg 69%
    08:00 +18°C° 0 mm 2 m/s 763 mmHg 63%
    09:00 +20°C° 0 mm 3 m/s 763 mmHg 57%
    10:00 +22°C° 0 mm 3 m/s 763 mmHg 49%
    11:00 +23°C° 0 mm 4 m/s 763 mmHg 40%
    12:00 +26°C° 0 mm 4 m/s 763 mmHg 32%
    13:00 +26°C° 0 mm 4 m/s 762 mmHg 32%
    14:00 +26°C° 0 mm 4 m/s 762 mmHg 32%
    15:00 +26°C° 0 mm 4 m/s 762 mmHg 32%
    16:00 +25°C° 0 mm 4 m/s 762 mmHg 36%
    17:00 +23°C° 0 mm 4 m/s 761 mmHg 40%
    18:00 +22°C° 0 mm 3 m/s 761 mmHg 44%
    19:00 +21°C° 0 mm 3 m/s 761 mmHg 49%
    20:00 +20°C° 0 mm 3 m/s 761 mmHg 55%
    21:00 +19°C° 0 mm 2 m/s 761 mmHg 60%
    22:00 +18°C° 0 mm 2 m/s 761 mmHg 63%
    23:00 +17°C° 0 mm 2 m/s 761 mmHg 65%

    Mâine, 21 Aprilie, Duminică

    Timp Temperatura Precipitaţii Vânt Presiune Umiditate
    00:00 +17°C° 0 mm 2 m/s 761 mmHg 68%
    01:00 +16°C° 0 mm 2 m/s 760 mmHg 68%
    02:00 +16°C° 0 mm 2 m/s 760 mmHg 68%
    03:00 +15°C° 0 mm 2 m/s 760 mmHg 69%
    04:00 +15°C° 0 mm 2 m/s 759 mmHg 67%
    05:00 +15°C° 0 mm 2 m/s 759 mmHg 66%
    06:00 +14°C° 0 mm 2 m/s 759 mmHg 65%
    07:00 +16°C° 0 mm 2 m/s 759 mmHg 59%
    08:00 +18°C° 0 mm 2 m/s 759 mmHg 52%
    09:00 +20°C° 0 mm 2 m/s 758 mmHg 46%
    10:00 +21°C° 0 mm 3 m/s 758 mmHg 41%
    11:00 +22°C° 0 mm 3 m/s 757 mmHg 36%
    12:00 +25°C° 0 mm 4 m/s 757 mmHg 31%
    13:00 +25°C° 0 mm 4 m/s 756 mmHg 31%
    14:00 +25°C° 0 mm 4 m/s 756 mmHg 31%
    15:00 +25°C° 0 mm 4 m/s 755 mmHg 31%
    16:00 +24°C° 0 mm 3 m/s 755 mmHg 35%
    17:00 +24°C° 0 mm 3 m/s 754 mmHg 39%
    18:00 +22°C° 0 mm 3 m/s 754 mmHg 43%
    19:00 +21°C° 0 mm 3 m/s 754 mmHg 46%
    20:00 +19°C° 0 mm 2 m/s 754 mmHg 50%
    21:00 +18°C° 0 mm 2 m/s 754 mmHg 53%
    22:00 +18°C° 0 mm 2 m/s 753 mmHg 55%
    23:00 +17°C° 0 mm 2 m/s 753 mmHg 57%

    Poimâine, 22 Aprilie, Luni

    Timp Temperatura Precipitaţii Vânt Presiune Umiditate
    00:00 +16°C° 0 mm 2 m/s 753 mmHg 59%
    01:00 +16°C° 0 mm 2 m/s 752 mmHg 61%
    02:00 +15°C° 0 mm 2 m/s 752 mmHg 62%
    03:00 +15°C° 0 mm 2 m/s 751 mmHg 64%
    04:00 +14°C° 0 mm 2 m/s 751 mmHg 66%
    05:00 +14°C° 0 mm 1 m/s 750 mmHg 68%
    06:00 +14°C° 0 mm 1 m/s 750 mmHg 71%
    07:00 +16°C° 0 mm 1 m/s 750 mmHg 67%
    08:00 +19°C° 0 mm 1 m/s 749 mmHg 63%
    09:00 +20°C° 0 mm 1 m/s 749 mmHg 59%
    10:00 +21°C° 0 mm 2 m/s 748 mmHg 54%
    11:00 +23°C° 0 mm 2 m/s 748 mmHg 49%
    12:00 +24°C° 0 mm 2 m/s 747 mmHg 45%
    13:00 +25°C° 0 mm 2 m/s 747 mmHg 42%
    14:00 +25°C° 0 mm 2 m/s 746 mmHg 40%
    15:00 +25°C° 0 mm 2 m/s 746 mmHg 38%
    16:00 +25°C° 0 mm 2 m/s 745 mmHg 42%
    17:00 +24°C° 0 mm 2 m/s 745 mmHg 45%
    18:00 +23°C° 0 mm 2 m/s 744 mmHg 49%
    19:00 +21°C° 0 mm 2 m/s 744 mmHg 54%
    20:00 +20°C° 0 mm 2 m/s 744 mmHg 58%
    21:00 +19°C° 0 mm 2 m/s 744 mmHg 63%
    22:00 +19°C° 0 mm 1 m/s 744 mmHg 67%
    23:00 +18°C° 0 mm 1 m/s 744 mmHg 70%

    23 Aprilie, Marţi

    Timp Temperatura Precipitaţii Vânt Presiune Umiditate
    00:00 +18°C° 0 mm 1 m/s 743 mmHg 74%
    01:00 +16°C° 0 mm 1 m/s 743 mmHg 76%
    02:00 +16°C° 0 mm 1 m/s 743 mmHg 77%
    03:00 +15°C° 0 mm 1 m/s 742 mmHg 79%
    04:00 +15°C° 0 mm 1 m/s 742 mmHg 79%
    05:00 +15°C° 0 mm 1 m/s 742 mmHg 78%
    06:00 +15°C° 0 mm 1 m/s 742 mmHg 77%
    07:00 +16°C° 0 mm 1 m/s 742 mmHg 70%
    08:00 +19°C° 0 mm 1 m/s 742 mmHg 64%
    09:00 +20°C° 0 mm 1 m/s 742 mmHg 57%
    10:00 +22°C° 0 mm 1 m/s 742 mmHg 53%
    11:00 +23°C° 0 mm 1 m/s 742 mmHg 50%
    12:00 +24°C° 0 mm 1 m/s 741 mmHg 46%
    13:00 +24°C° 0 mm 1 m/s 741 mmHg 45%
    14:00 +25°C° 0 mm 1 m/s 741 mmHg 44%
    15:00 +25°C° 0 mm 1 m/s 740 mmHg 43%
    16:00 +24°C° 0.1 mm 1 m/s 740 mmHg 47%
    17:00 +23°C° 0.1 mm 1 m/s 740 mmHg 51%
    18:00 +22°C° 0.1 mm 1 m/s 740 mmHg 56%
    19:00 +22°C° 0.2 mm 1 m/s 740 mmHg 60%
    20:00 +21°C° 0.2 mm 1 m/s 741 mmHg 64%
    21:00 +20°C° 0.2 mm 1 m/s 741 mmHg 68%
    22:00 +20°C° 0.6 mm 1 m/s 741 mmHg 69%
    23:00 +18°C° 0.6 mm 2 m/s 741 mmHg 70%

    24 Aprilie, Miercuri

    Timp Temperatura Precipitaţii Vânt Presiune Umiditate
    00:00 +18°C° 0.6 mm 2 m/s 741 mmHg 71%
    01:00 +17°C° 0 mm 2 m/s 741 mmHg 74%
    02:00 +17°C° 0 mm 2 m/s 741 mmHg 77%
    03:00 +16°C° 0 mm 3 m/s 741 mmHg 80%
    04:00 +16°C° 0.2 mm 3 m/s 741 mmHg 81%
    05:00 +15°C° 0.2 mm 4 m/s 741 mmHg 82%
    06:00 +14°C° 0.2 mm 5 m/s 742 mmHg 83%
    07:00 +14°C° 0.4 mm 5 m/s 742 mmHg 81%
    08:00 +14°C° 0.4 mm 5 m/s 743 mmHg 79%
    09:00 +14°C° 0.4 mm 4 m/s 744 mmHg 77%
    10:00 +15°C° 0.2 mm 5 m/s 744 mmHg 71%
    11:00 +15°C° 0.2 mm 5 m/s 744 mmHg 65%
    12:00 +16°C° 0.2 mm 5 m/s 744 mmHg 59%
    13:00 +15°C° 0.2 mm 5 m/s 744 mmHg 60%
    14:00 +15°C° 0.2 mm 4 m/s 744 mmHg 60%
    15:00 +14°C° 0.2 mm 4 m/s 744 mmHg 61%
    16:00 +14°C° 0 mm 4 m/s 745 mmHg 59%
    17:00 +14°C° 0 mm 5 m/s 745 mmHg 56%
    18:00 +14°C° 0 mm 5 m/s 745 mmHg 54%
    19:00 +14°C° 0 mm 5 m/s 745 mmHg 57%
    20:00 +13°C° 0 mm 5 m/s 746 mmHg 60%
    21:00 +13°C° 0 mm 5 m/s 746 mmHg 62%
    22:00 +13°C° 0 mm 5 m/s 745 mmHg 63%
    23:00 +13°C° 0 mm 5 m/s 745 mmHg 65%

    25 Aprilie, Joi

    Timp Temperatura Precipitaţii Vânt Presiune Umiditate
    00:00 +13°C° 0 mm 6 m/s 745 mmHg 66%
    01:00 +11°C° 0.2 mm 6 m/s 745 mmHg 70%
    02:00 +11°C° 0.2 mm 6 m/s 746 mmHg 74%
    03:00 +10°C° 0.2 mm 6 m/s 746 mmHg 78%
    04:00 +10°C° 0.1 mm 6 m/s 746 mmHg 77%
    05:00 +10°C° 0.1 mm 5 m/s 746 mmHg 75%
    06:00 +9°C° 0.1 mm 5 m/s 747 mmHg 74%
    07:00 +10°C° 0.2 mm 5 m/s 747 mmHg 73%
    08:00 +11°C° 0.2 mm 6 m/s 747 mmHg 72%
    09:00 +11°C° 0.2 mm 6 m/s 747 mmHg 72%
    10:00 +13°C° 0.7 mm 6 m/s 748 mmHg 66%
    11:00 +14°C° 0.7 mm 6 m/s 748 mmHg 60%
    12:00 +15°C° 0.7 mm 7 m/s 748 mmHg 54%
    13:00 +15°C° 0.6 mm 6 m/s 748 mmHg 54%
    14:00 +15°C° 0.6 mm 6 m/s 748 mmHg 54%
    15:00 +14°C° 0.6 mm 6 m/s 749 mmHg 54%
    16:00 +14°C° 0.2 mm 6 m/s 749 mmHg 56%
    17:00 +13°C° 0.2 mm 5 m/s 749 mmHg 58%
    18:00 +13°C° 0.2 mm 5 m/s 749 mmHg 60%
    19:00 +12°C° 0.1 mm 5 m/s 750 mmHg 63%
    20:00 +10°C° 0.1 mm 5 m/s 751 mmHg 66%
    21:00 +9°C° 0.1 mm 5 m/s 751 mmHg 70%
    22:00 +9°C° 0.1 mm 5 m/s 751 mmHg 72%
    23:00 +9°C° 0.1 mm 5 m/s 752 mmHg 74%
    Arată mai mult